Time,TemperatureF,DewpointF,PressureIn,WindDirection,WindDirectionDegrees,WindSpeedMPH,WindSpeedGustMPH,Humidity,HourlyPrecipIn,Conditions,Clouds,dailyrainin,SoftwareType,DateUTC
2013-03-26 00:00:00,25.7,19.2,30.06,WNW,288,0.0,3.0,76,0.00,,,0.00,VWS V14.01,2013-03-26 05:00:00,
2013-03-26 00:02:00,25.7,19.2,30.06,NW,305,4.0,4.0,76,0.00,,CLR,0.00,VWS V14.01,2013-03-26 05:02:00,
2013-03-26 00:07:00,25.7,19.2,30.06,WSW,249,1.0,4.0,76,0.00,,CLR,0.00,VWS V14.01,2013-03-26 05:07:00,
2013-03-26 00:12:00,25.7,19.2,30.06,West,268,0.0,4.0,76,0.00,,CLR,0.00,VWS V14.01,2013-03-26 05:12:00,
2013-03-26 00:18:00,25.4,18.9,30.06,West,267,2.0,4.0,76,0.00,,CLR,0.00,VWS V14.01,2013-03-26 05:18:00,
2013-03-26 00:23:00,25.3,19.1,30.06,WNW,302,2.0,4.0,77,0.00,,CLR,0.00,VWS V14.01,2013-03-26 05:23:00,
2013-03-26 00:28:00,25.3,18.8,30.05,West,276,0.0,4.0,76,0.00,,CLR,0.00,VWS V14.01,2013-03-26 05:28:00,
2013-03-26 00:30:00,25.2,18.7,30.05,North,356,0.0,4.0,76,0.00,,,0.00,VWS V14.01,2013-03-26 05:30:00,
2013-03-26 00:33:00,25.1,18.6,30.05,NNW,344,1.0,1.0,76,0.00,,CLR,0.00,VWS V14.01,2013-03-26 05:33:00,
2013-03-26 00:38:00,25.0,18.8,30.06,WNW,302,1.0,2.0,77,0.00,,CLR,0.00,VWS V14.01,2013-03-26 05:38:00,
2013-03-26 00:43:00,24.9,18.7,30.06,NNW,328,3.0,6.0,77,0.00,,CLR,0.00,VWS V14.01,2013-03-26 05:43:00,
2013-03-26 00:48:00,24.7,18.5,30.06,SW,219,2.0,6.0,77,0.00,,CLR,0.00,VWS V14.01,2013-03-26 05:48:00,
2013-03-26 00:53:00,24.4,18.5,30.06,WNW,296,1.0,6.0,78,0.00,,CLR,0.00,VWS V14.01,2013-03-26 05:53:00,
2013-03-26 00:58:00,24.2,18.9,30.06,West,260,2.0,6.0,80,0.00,,CLR,0.00,VWS V14.01,2013-03-26 05:58:00,
2013-03-26 01:00:00,24.1,18.8,30.06,NW,314,3.0,6.0,80,0.00,,,0.00,VWS V14.01,2013-03-26 06:00:00,
2013-03-26 01:03:00,24.0,19.0,30.06,West,259,1.0,6.0,81,0.00,,CLR,0.00,VWS V14.01,2013-03-26 06:03:00,
2013-03-26 01:09:00,23.9,19.2,30.06,WNW,294,0.0,6.0,82,0.00,,CLR,0.00,VWS V14.01,2013-03-26 06:09:00,
2013-03-26 01:14:00,23.6,19.2,30.06,NW,307,2.0,6.0,83,0.00,,CLR,0.00,VWS V14.01,2013-03-26 06:14:00,
2013-03-26 01:19:00,23.5,19.4,30.07,NW,325,3.0,6.0,84,0.00,,CLR,0.00,VWS V14.01,2013-03-26 06:19:00,
2013-03-26 01:24:00,23.4,19.3,30.06,WNW,299,0.0,6.0,84,0.00,,CLR,0.00,VWS V14.01,2013-03-26 06:24:00,
2013-03-26 01:29:00,23.3,19.5,30.06,WNW,288,1.0,6.0,85,0.00,,CLR,0.00,VWS V14.01,2013-03-26 06:29:00,
2013-03-26 01:30:00,23.2,19.4,30.06,NNW,330,2.0,6.0,85,0.00,,,0.00,VWS V14.01,2013-03-26 06:30:00,
2013-03-26 01:34:00,23.2,19.4,30.06,West,269,1.0,5.0,85,0.00,,CLR,0.00,VWS V14.01,2013-03-26 06:34:00,
2013-03-26 01:39:00,23.1,19.5,30.06,West,265,1.0,5.0,86,0.00,,CLR,0.00,VWS V14.01,2013-03-26 06:39:00,
2013-03-26 01:44:00,23.1,19.5,30.06,NW,325,2.0,6.0,86,0.00,,CLR,0.00,VWS V14.01,2013-03-26 06:44:00,
2013-03-26 01:49:00,23.0,19.5,30.06,WNW,297,1.0,6.0,86,0.00,,CLR,0.00,VWS V14.01,2013-03-26 06:49:00,
2013-03-26 01:54:00,22.9,19.4,30.06,NW,314,1.0,6.0,86,0.00,,CLR,0.00,VWS V14.01,2013-03-26 06:54:00,
2013-03-26 01:59:00,22.8,19.2,30.06,NW,322,1.0,6.0,86,0.00,,CLR,0.00,VWS V14.01,2013-03-26 06:59:00,
2013-03-26 02:00:00,22.8,19.2,30.06,West,263,2.0,6.0,86,0.00,,,0.00,VWS V14.01,2013-03-26 07:00:00,
2013-03-26 02:04:00,22.7,19.4,30.06,SW,235,1.0,4.0,87,0.00,,CLR,0.00,VWS V14.01,2013-03-26 07:04:00,
2013-03-26 02:09:00,22.7,19.1,30.06,NW,311,1.0,4.0,86,0.00,,CLR,0.00,VWS V14.01,2013-03-26 07:09:00,
2013-03-26 02:14:00,22.7,19.1,30.06,WNW,287,2.0,5.0,86,0.00,,CLR,0.00,VWS V14.01,2013-03-26 07:14:00,
2013-03-26 02:20:00,22.6,19.3,30.06,WSW,240,1.0,5.0,87,0.00,,CLR,0.00,VWS V14.01,2013-03-26 07:20:00,
2013-03-26 02:25:00,22.5,19.0,30.06,WSW,257,2.0,7.0,86,0.00,,CLR,0.00,VWS V14.01,2013-03-26 07:25:00,
2013-03-26 02:30:00,22.5,19.0,30.06,NW,314,2.0,7.0,86,0.00,,CLR,0.00,VWS V14.01,2013-03-26 07:30:00,
2013-03-26 02:35:00,22.3,18.8,30.06,West,260,1.0,4.0,86,0.00,,CLR,0.00,VWS V14.01,2013-03-26 07:35:00,
2013-03-26 02:40:00,22.2,18.7,30.06,West,281,3.0,5.0,86,0.00,,CLR,0.00,VWS V14.01,2013-03-26 07:40:00,
2013-03-26 02:45:00,22.2,18.9,30.06,NNW,327,3.0,7.0,87,0.00,,CLR,0.00,VWS V14.01,2013-03-26 07:45:00,
2013-03-26 02:50:00,22.1,18.6,30.06,North,8,5.0,7.0,86,0.00,,CLR,0.00,VWS V14.01,2013-03-26 07:50:00,
2013-03-26 02:55:00,22.1,18.6,30.06,NW,319,1.0,7.0,86,0.00,,CLR,0.00,VWS V14.01,2013-03-26 07:55:00,
2013-03-26 03:00:00,22.1,18.6,30.06,NNW,336,0.0,7.0,86,0.00,,CLR,0.00,VWS V14.01,2013-03-26 08:00:00,
2013-03-26 03:05:00,22.0,18.5,30.06,NW,314,5.0,5.0,86,0.00,,CLR,0.00,VWS V14.01,2013-03-26 08:05:00,
2013-03-26 03:10:00,22.1,18.6,30.06,WNW,302,2.0,5.0,86,0.00,,CLR,0.00,VWS V14.01,2013-03-26 08:10:00,
2013-03-26 03:15:00,22.1,18.6,30.06,West,267,2.0,5.0,86,0.00,,CLR,0.00,VWS V14.01,2013-03-26 08:15:00,
2013-03-26 03:30:00,22.1,18.6,30.06,NW,315,2.0,5.0,86,0.00,,,0.00,VWS V14.01,2013-03-26 08:30:00,
2013-03-26 04:00:00,22.2,18.7,30.06,NW,315,2.0,7.0,86,0.00,,,0.00,VWS V14.01,2013-03-26 09:00:00,
2013-03-26 04:30:00,22.6,18.8,30.06,NW,315,2.0,5.0,85,0.00,,,0.00,VWS V14.01,2013-03-26 09:30:00,
2013-03-26 05:00:00,22.9,19.1,30.07,NW,315,2.0,7.0,85,0.00,,,0.00,VWS V14.01,2013-03-26 10:00:00,
2013-03-26 05:30:00,23.1,19.3,30.07,NW,315,3.0,9.0,85,0.00,,,0.00,VWS V14.01,2013-03-26 10:30:00,
2013-03-26 06:00:00,23.0,19.5,30.08,NW,315,2.0,7.0,86,0.00,,,0.00,VWS V14.01,2013-03-26 11:00:00,
2013-03-26 06:30:00,22.9,19.4,30.09,NW,315,2.0,6.0,86,0.00,,,0.00,VWS V14.01,2013-03-26 11:30:00,
2013-03-26 07:00:00,22.8,19.2,30.09,NW,315,2.0,6.0,86,0.00,,,0.00,VWS V14.01,2013-03-26 12:00:00,
2013-03-26 07:30:00,22.9,19.4,30.10,NW,315,2.0,6.0,86,0.00,,,0.00,VWS V14.01,2013-03-26 12:30:00,
2013-03-26 08:00:00,23.1,19.3,30.11,NW,315,2.0,6.0,85,0.00,,,0.00,VWS V14.01,2013-03-26 13:00:00,
2013-03-26 08:30:00,23.5,19.4,30.12,NW,315,2.0,6.0,84,0.00,,,0.00,VWS V14.01,2013-03-26 13:30:00,
2013-03-26 09:00:00,24.2,19.8,30.12,NW,315,2.0,7.0,83,0.00,,,0.00,VWS V14.01,2013-03-26 14:00:00,
2013-03-26 09:30:00,25.2,20.2,30.13,NW,315,2.0,6.0,81,0.00,,,0.00,VWS V14.01,2013-03-26 14:30:00,
2013-03-26 10:00:00,26.6,21.0,30.13,NW,315,2.0,5.0,79,0.00,,,0.00,VWS V14.01,2013-03-26 15:00:00,
2013-03-26 10:30:00,28.0,21.4,30.13,NW,315,2.0,6.0,76,0.00,,,0.00,VWS V14.01,2013-03-26 15:30:00,
2013-03-26 11:00:00,29.6,22.4,30.14,NW,315,2.0,7.0,74,0.00,,,0.00,VWS V14.01,2013-03-26 16:00:00,
2013-03-26 11:30:00,30.7,23.7,30.14,NW,315,2.0,6.0,75,0.00,,,0.00,VWS V14.01,2013-03-26 16:30:00,
2013-03-26 12:00:00,32.0,24.0,30.13,NW,315,3.0,8.0,72,0.00,,,0.00,VWS V14.01,2013-03-26 17:00:00,
2013-03-26 12:30:00,33.6,24.9,30.13,West,270,2.0,7.0,70,0.00,,,0.00,VWS V14.01,2013-03-26 17:30:00,
2013-03-26 13:00:00,33.5,24.8,30.13,NW,315,2.0,6.0,70,0.00,,,0.00,VWS V14.01,2013-03-26 18:00:00,
2013-03-26 13:30:00,34.4,25.0,30.12,WSW,248,3.0,9.0,68,0.00,,,0.00,VWS V14.01,2013-03-26 18:30:00,
2013-03-26 14:00:00,35.0,26.2,30.12,NW,315,2.0,8.0,70,0.00,,,0.00,VWS V14.01,2013-03-26 19:00:00,
2013-03-26 14:30:00,35.6,26.5,30.12,WSW,248,3.0,8.0,69,0.00,,,0.00,VWS V14.01,2013-03-26 19:30:00,
2013-03-26 15:00:00,35.9,25.7,30.12,WSW,248,3.0,10.0,66,0.00,,,0.00,VWS V14.01,2013-03-26 20:00:00,
2013-03-26 15:30:00,36.3,26.4,30.12,WSW,248,3.0,9.0,67,0.00,,,0.00,VWS V14.01,2013-03-26 20:30:00,
2013-03-26 16:00:00,36.7,27.1,30.12,NW,315,3.0,9.0,68,0.00,,,0.00,VWS V14.01,2013-03-26 21:00:00,
2013-03-26 16:30:00,36.7,25.3,30.11,NW,315,3.0,10.0,63,0.00,,,0.00,VWS V14.01,2013-03-26 21:30:00,
2013-03-26 17:00:00,36.5,25.5,30.12,NW,315,3.0,8.0,64,0.00,,,0.00,VWS V14.01,2013-03-26 22:00:00,
2013-03-26 17:30:00,36.3,25.3,30.12,NW,315,3.0,7.0,64,0.00,,,0.00,VWS V14.01,2013-03-26 22:30:00,
2013-03-26 18:00:00,36.3,24.9,30.11,NW,315,2.0,7.0,63,0.00,,,0.00,VWS V14.01,2013-03-26 23:00:00,
2013-03-26 18:30:00,36.0,23.1,30.11,NW,315,2.0,6.0,59,0.00,,,0.00,VWS V14.01,2013-03-26 23:30:00,
2013-03-26 19:00:00,35.2,24.3,30.11,NW,315,2.0,6.0,64,0.00,,,0.00,VWS V14.01,2013-03-27 00:00:00,
2013-03-26 19:30:00,33.7,24.6,30.12,NW,315,0.0,2.0,69,0.00,,,0.00,VWS V14.01,2013-03-27 00:30:00,
2013-03-26 20:00:00,31.8,24.5,30.12,WSW,248,0.0,2.0,74,0.00,,,0.00,VWS V14.01,2013-03-27 01:00:00,
2013-03-26 20:30:00,30.4,24.4,30.12,SSW,202,0.0,1.0,78,0.00,,,0.00,VWS V14.01,2013-03-27 01:30:00,
2013-03-26 21:00:00,29.5,23.8,30.13,SW,225,0.0,1.0,79,0.00,,,0.00,VWS V14.01,2013-03-27 02:00:00,
2013-03-26 21:30:00,29.2,23.5,30.13,WSW,248,0.0,2.0,79,0.00,,,0.00,VWS V14.01,2013-03-27 02:30:00,
2013-03-26 22:00:00,28.8,23.1,30.13,SW,225,0.0,2.0,79,0.00,,,0.00,VWS V14.01,2013-03-27 03:00:00,
2013-03-26 22:30:00,28.0,23.2,30.14,WSW,248,0.0,1.0,82,0.00,,,0.00,VWS V14.01,2013-03-27 03:30:00,
2013-03-26 23:00:00,26.4,22.5,30.14,WSW,248,0.0,0.0,85,0.00,,,0.00,VWS V14.01,2013-03-27 04:00:00,
2013-03-26 23:30:00,25.5,21.4,30.14,WSW,248,0.0,2.0,84,0.00,,,0.00,VWS V14.01,2013-03-27 04:30:00,